Вернуться в каталог

STARLINK-31878

АктивенСвязьVLEO
NORAD 60031·PAYLOAD·🇺🇸 United States

Запущен Jun 8, 2024 с Cape Canaveral Space Force Station

Loading…

Ближайшие Пролёты (ближайшие 24 часа)

TLE

СвежийSource: CelesTrak SupGP

Эпоха: Sep 14, 2026, 22:37 UTC

1 60031C 24111R   26257.94284722  .00012464  00000+0  36847-3 0  2573
2 60031  53.1576 221.3912 0001708 111.2061 276.3451 15.34365883    12

Отслеживайте STARLINK-31878 в реальном времени с AllMySat

Download on the App Store